Location: Peebles
(55.6412°N, 3.1714°W)
Time: 00:33:34
(UTC+00:00)

Cosmos 1680 Rocket - Visible Passes

Search period start: 28 January 2022 00:00
Search period end: 07 February 2022 00:00
Orbit: 760 x 780 km, 74.1° (Epoch: 27 January)

Date Brightness Start Highest point End Pass type
(mag) Time Alt. Az. Time Alt. Az. Time Alt. Az.
28 Jan 5.5 17:20:30 10° N 17:22:16 11° NNE 17:24:00 10° NE visible
28 Jan 4.7 19:02:04 10° NNW 19:05:58 25° NNE 19:05:58 25° NNE visible
28 Jan 5.2 20:43:56 10° NNW 20:46:18 27° NNW 20:46:18 27° NNW visible
29 Jan 4.9 18:25:48 10° NNW 18:29:35 20° NE 18:30:33 19° NE visible
29 Jan 4.4 20:07:32 10° NNW 20:10:53 39° N 20:10:53 39° N visible
29 Jan 6.2 21:50:10 10° NW 21:51:12 15° NW 21:51:12 15° NW visible
30 Jan 5.2 17:49:33 10° N 17:52:45 16° NNE 17:55:10 12° ENE visible
30 Jan 4.0 19:31:12 10° NNW 19:35:30 43° NNE 19:35:30 43° NNE visible
30 Jan 5.5 21:13:29 10° NW 21:15:50 24° NW 21:15:50 24° NW visible
31 Jan 4.2 18:54:54 10° NNW 18:59:38 33° NE 19:00:12 33° ENE visible
31 Jan 4.6 20:36:57 10° NNW 20:40:32 42° NW 20:40:32 42° NW visible
01 Feb 4.6 18:18:36 10° NNW 18:22:57 25° NE 18:24:58 20° ENE visible
01 Feb 3.5 20:00:30 10° NNW 20:05:19 76° NW 20:05:19 76° NW visible
01 Feb 6.1 21:43:43 10° NW 21:45:39 16° WNW 21:45:39 16° WNW visible
02 Feb 4.9 17:42:21 10° NNW 17:46:10 20° NE 17:49:49 11° E visible
02 Feb 3.4 19:24:06 10° NNW 19:29:19 66° ENE 19:30:11 56° ESE visible
02 Feb 5.4 21:06:46 10° NW 21:10:32 26° W 21:10:32 26° W visible
03 Feb 3.8 18:47:46 10° NNW 18:52:49 46° NE 18:55:10 28° ESE visible
03 Feb 4.6 20:30:04 10° NW 20:34:53 39° WSW 20:35:32 37° WSW visible
04 Feb 4.2 18:11:27 10° NNW 18:16:13 34° NE 18:20:19 13° ESE visible
04 Feb 4.0 19:53:31 10° NNW 19:58:39 58° WSW 20:00:42 34° S visible
04 Feb 6.3 21:38:10 10° WNW 21:39:39 11° W 21:41:04 10° WSW visible
05 Feb 4.5 17:35:10 10° NNW 17:39:32 26° NE 17:43:52 10° E visible
05 Feb 3.5 19:17:03 10° NNW 19:22:18 85° WSW 19:26:05 19° SSE visible
05 Feb 6.0 21:00:20 10° NW 21:03:40 17° W 21:06:29 12° SW visible
06 Feb 3.4 18:40:40 10° NNW 18:45:53 67° ENE 18:51:05 10° SE visible
06 Feb 5.5 20:23:21 10° NW 20:27:36 26° W 20:31:50 10° SSW visible
